Powrót do katalogu

STARLINK-5806

AktywnyŁącznośćVLEO
NORAD 56007·PAYLOAD·🇺🇸 United States

Wystrzelony Mar 24, 2023 z Cape Canaveral Space Force Station

Loading…

Następne Przeloty (najbliższe 24 godziny)

TLE

ŚwieżeSource: CelesTrak SupGP

Epoka: Sep 14, 2026, 21:06 UTC

1 56007C 23042X   26257.87965278  .00040787  00000+0  14772-2 0  2578
2 56007  43.0037  71.1477 0002159 273.0012  89.6602 15.27558605    12

Śledź STARLINK-5806 w czasie rzeczywistym z AllMySat

Download on the App Store